EW8865 Weather Reports


time (UTC)temp
F
wind
direction
speed
knots
gust
knots
rain 1hr
in
rain 24hr
in
rain mn
in
humidity
%
barometer
mb
20260902060504 59 224 0.0 0.0 0.00 0.00 0.00 91 1017.1
20260902055503 59 231 0.0 0.0 0.00 0.00 0.00 91 1017.2
20260902055003 59 231 0.0 0.0 0.00 0.00 0.00 91 1017.2
20260902054503 59 232 0.0 0.0 0.00 0.00 0.00 91 1017.0
20260902054004 59 232 0.0 0.0 0.00 0.00 0.00 91 1017.1
20260902053003 59 232 0.0 0.0 0.00 0.00 0.00 91 1017.2
20260902052003 59 232 0.0 0.0 0.00 0.00 0.00 91 1017.2
20260902051503 59 232 0.0 0.0 0.00 0.00 0.00 91 1017.4
20260902051003 59 232 0.0 0.0 0.00 0.00 0.00 91 1017.5
20260902050504 59 232 0.0 0.0 0.00 0.00 0.00 91 1017.4
20260902050005 59 232 0.0 0.0 0.00 0.00 0.00 90 1017.3
20260902045504 59 232 0.0 0.0 0.00 0.00 0.00 90 1017.3
20260902045004 59 232 0.0 0.0 0.00 0.00 0.00 90 1017.2
20260902044504 59 232 0.0 0.0 0.00 0.00 0.00 90 1017.2
20260902044003 59 232 0.0 0.0 0.00 0.00 0.00 90 1017.2
20260902043504 59 232 0.0 0.0 0.00 0.00 0.00 90 1017.3
20260902043003 59 232 0.0 0.0 0.00 0.00 0.00 90 1017.2
20260902042504 59 232 0.0 0.0 0.00 0.00 0.00 90 1017.3
20260902041504 59 232 0.0 0.0 0.00 0.00 0.00 90 1017.5
20260902041003 59 232 0.0 0.0 0.00 0.00 0.00 90 1017.6
20260902040503 59 232 0.0 0.0 0.00 0.00 0.00 90 1017.6
20260902040004 59 232 0.0 0.0 0.00 0.00 0.00 90 1017.6
20260902035504 60 232 0.0 0.0 0.00 0.00 0.00 90 1017.6
20260902035004 60 232 0.9 2.6 0.00 0.00 0.00 89 1017.6
20260902034504 60 229 0.0 0.0 0.00 0.00 0.00 89 1017.6
20260902034003 60 228 0.0 0.0 0.00 0.00 0.00 89 1017.5
20260902033503 60 228 0.0 0.9 0.00 0.00 0.00 89 1017.6
20260902033004 60 228 0.0 0.9 0.00 0.00 0.00 89 1017.8
20260902032504 60 228 0.9 2.6 0.00 0.00 0.00 89 1017.9
20260902032004 60 228 0.0 0.9 0.00 0.00 0.00 89 1017.9
20260902031504 60 228 0.0 0.0 0.00 0.00 0.00 89 1017.8
20260902031004 60 228 0.0 0.0 0.00 0.00 0.00 89 1017.8
20260902030503 60 228 0.0 0.0 0.00 0.00 0.00 89 1017.9
20260902030004 60 228 0.0 0.9 0.00 0.00 0.00 89 1018.0
20260902025504 60 228 0.9 2.6 0.00 0.00 0.00 89 1018.0
20260902025004 60 229 1.7 2.6 0.00 0.00 0.00 89 1018.1
20260902024503 60 229 0.0 0.9 0.00 0.00 0.00 89 1018.2
20260902024004 60 229 0.0 0.9 0.00 0.00 0.00 89 1018.1
20260902023503 60 229 0.0 1.7 0.00 0.00 0.00 89 1018.2
20260902023004 60 229 1.7 2.6 0.00 0.00 0.00 89 1018.3
20260902022503 60 229 1.7 2.6 0.00 0.00 0.00 89 1018.2
20260902022004 60 229 1.7 2.6 0.00 0.00 0.00 89 1018.3
20260902020503 60 233 0.9 2.6 0.00 0.00 0.00 89 1018.2
20260902020003 60 233 1.7 4.3 0.00 0.00 0.00 89 1018.3
20260902015503 60 244 1.7 4.3 0.00 0.00 0.00 89 1018.4
20260902014503 60 245 0.9 2.6 0.00 0.00 0.00 89 1018.6
20260902014003 60 246 1.7 2.6 0.00 0.00 0.00 89 1018.6
20260902013004 60 239 2.6 4.3 0.00 0.00 0.00 89 1018.7
20260902012504 60 230 0.0 2.6 0.00 0.00 0.00 89 1018.7
20260902012004 60 229 0.9 2.6 0.00 0.00 0.00 89 1018.7
20260902011504 60 228 0.9 2.6 0.00 0.00 0.00 89 1018.8
20260902011004 60 215 0.0 1.7 0.00 0.00 0.00 89 1018.8
20260902010504 60 215 0.0 0.0 0.00 0.00 0.00 89 1018.8
20260902005503 60 215 0.0 0.0 0.00 0.00 0.00 89 1019.0
20260902005003 60 215 0.0 0.0 0.00 0.00 0.00 89 1018.9
20260902004503 60 215 0.0 2.6 0.00 0.00 0.00 89 1018.9
20260902004003 60 215 0.9 2.6 0.00 0.00 0.00 89 1018.9
20260902003503 60 213 0.0 0.0 0.00 0.00 0.00 89 1018.9
20260902003003 60 212 0.0 0.0 0.00 0.00 0.00 89 1019.0
20260902002503 60 212 0.0 0.0 0.00 0.00 0.00 89 1019.0
20260902002004 60 212 0.0 0.0 0.00 0.00 0.00 89 1019.0
20260902001503 60 212 0.0 0.0 0.00 0.00 0.00 89 1019.1
20260902000504 60 212 0.0 0.0 0.00 0.00 0.00 90 1019.1
20260902000004 60 212 0.0 0.0 0.00 0.00 0.00 89 1019.1
20260901235004 60 211 0.0 0.0 0.00 0.00 0.00 89 1019.1
20260901234503 60 210 0.0 0.0 0.00 0.00 0.00 89 1019.1
20260901234003 60 210 0.0 0.0 0.00 0.00 0.00 89 1019.1
20260901233503 60 210 0.0 0.0 0.00 0.00 0.00 89 1019.2
20260901233003 60 210 0.0 0.0 0.00 0.00 0.00 89 1019.3
20260901232503 60 210 0.0 0.0 0.00 0.00 0.00 89 1019.3
20260901231503 60 210 0.9 2.6 0.00 0.00 0.00 89 1019.3
20260901231004 60 210 0.9 1.7 0.00 0.00 0.00 89 1019.4
20260901230503 60 210 0.9 2.6 0.00 0.00 0.00 89 1019.4
20260901230004 60 210 0.9 2.6 0.00 0.00 0.00 89 1019.3
20260901225504 60 210 0.0 0.0 0.00 0.00 0.00 89 1019.3
20260901225004 60 210 0.0 0.0 0.00 0.00 0.00 89 1019.2
20260901224504 60 210 0.0 0.0 0.00 0.00 0.00 89 1019.2
20260901224004 60 210 0.9 2.6 0.00 0.00 0.00 89 1019.2
20260901223503 60 210 0.9 2.6 0.00 0.00 0.00 89 1019.1
20260901222004 60 210 1.7 4.3 0.00 0.00 0.00 88 1019.1
20260901220003 60 199 0.9 1.7 0.00 0.00 0.00 88 1019.2
20260901215504 60 199 0.9 2.6 0.00 0.00 0.00 88 1019.3
20260901215004 60 198 0.0 2.6 0.00 0.00 0.00 88 1019.3
20260901214504 60 198 0.0 0.0 0.00 0.00 0.00 87 1019.3
20260901213504 60 198 0.0 0.0 0.00 0.00 0.00 87 1019.3
20260901213004 60 198 0.0 0.0 0.00 0.00 0.00 87 1019.4
20260901212503 60 198 0.0 0.0 0.00 0.00 0.00 87 1019.5
20260901212003 60 198 0.0 0.0 0.00 0.00 0.00 87 1019.5
20260901211003 60 198 0.0 0.0 0.00 0.00 0.00 86 1019.5
20260901210503 60 198 0.0 0.9 0.00 0.00 0.00 86 1019.5
20260901210004 60 198 0.9 1.7 0.00 0.00 0.00 86 1019.5
20260901205503 60 198 1.7 2.6 0.00 0.00 0.00 85 1019.5
20260901205004 60 198 0.0 0.9 0.00 0.00 0.00 85 1019.5
20260901204504 60 198 0.9 2.6 0.00 0.00 0.00 85 1019.5
20260901203504 60 197 0.0 1.7 0.00 0.00 0.00 85 1019.5
20260901203003 60 197 0.9 2.6 0.00 0.00 0.00 84 1019.5
20260901202503 60 197 1.7 2.6 0.00 0.00 0.00 84 1019.5
20260901202003 60 197 0.9 2.6 0.00 0.00 0.00 84 1019.4
20260901201503 60 197 1.7 2.6 0.00 0.00 0.00 83 1019.5
20260901201004 60 196 1.7 2.6 0.00 0.00 0.00 83 1019.5
20260901200004 61 272 0.0 2.6 0.00 0.00 0.00 82 1019.3
20260901195504 61 272 0.9 1.7 0.00 0.00 0.00 82 1019.4
20260901195004 61 272 0.0 0.0 0.00 0.00 0.00 82 1019.4
20260901194504 61 272 0.9 1.7 0.00 0.00 0.00 82 1019.4
20260901194004 61 273 0.9 2.6 0.00 0.00 0.00 81 1019.4
20260901193504 61 272 2.6 5.2 0.00 0.00 0.00 81 1019.4
20260901193004 62 265 1.7 2.6 0.00 0.00 0.00 80 1019.5
20260901192504 62 264 1.7 6.1 0.00 0.00 0.00 80 1019.3
20260901192004 62 280 3.5 6.1 0.00 0.00 0.00 80 1019.4
20260901191504 62 281 3.5 7.0 0.00 0.00 0.00 79 1019.4
20260901191004 62 279 4.3 7.8 0.00 0.00 0.00 78 1019.4
20260901190504 62 275 1.7 2.6 0.00 0.00 0.00 78 1019.3
20260901190003 62 281 1.7 2.6 0.00 0.00 0.00 78 1019.3
20260901185003 62 262 2.6 5.2 0.00 0.00 0.00 78 1019.3
20260901184504 62 265 2.6 5.2 0.00 0.00 0.00 79 1019.2
20260901184004 63 261 3.5 7.8 0.00 0.00 0.00 79 1019.2
20260901183503 63 253 4.3 7.8 0.00 0.00 0.00 79 1019.2
20260901183004 63 270 7.0 10.4 0.00 0.00 0.00 78 1019.2
20260901182503 63 234 5.2 10.4 0.00 0.00 0.00 77 1019.2
20260901182004 64 263 5.2 7.0 0.00 0.00 0.00 78 1019.2
20260901181503 64 260 3.5 7.8 0.00 0.00 0.00 77 1019.1
20260901181004 64 252 5.2 7.8 0.00 0.00 0.00 77 1019.2
20260901180003 64 268 5.2 10.4 0.00 0.00 0.00 76 1019.1
20260901175503 64 249 5.2 8.7 0.00 0.00 0.00 76 1019.2
20260901175004 64 267 5.2 7.0 0.00 0.00 0.00 75 1019.1
20260901174504 64 253 5.2 8.7 0.00 0.00 0.00 75 1019.1
20260901173503 65 234 6.1 11.3 0.00 0.00 0.00 73 1019.2
20260901172504 65 269 6.1 10.4 0.00 0.00 0.00 72 1019.4
20260901172004 65 265 6.1 11.3 0.00 0.00 0.00 72 1019.5
20260901171503 65 266 5.2 10.4 0.00 0.00 0.00 72 1019.5
20260901171004 65 259 7.0 10.4 0.00 0.00 0.00 71 1019.4
20260901170003 66 248 8.7 13.0 0.00 0.00 0.00 69 1019.4
20260901165504 66 273 7.8 11.3 0.00 0.00 0.00 68 1019.5
20260901164504 67 266 6.1 14.8 0.00 0.00 0.00 64 1019.3
20260901164004 67 266 7.8 13.9 0.00 0.00 0.00 64 1019.4
20260901163503 67 246 5.2 12.2 0.00 0.00 0.00 66 1019.3
20260901163004 67 282 7.8 14.8 0.00 0.00 0.00 66 1019.4
20260901162503 67 271 8.7 14.8 0.00 0.00 0.00 66 1019.3
20260901162003 67 273 8.7 12.2 0.00 0.00 0.00 66 1019.3
20260901161503 67 278 8.7 13.9 0.00 0.00 0.00 67 1019.3
20260901161004 67 282 8.7 13.9 0.00 0.00 0.00 68 1019.3
20260901160504 67 266 8.7 14.8 0.00 0.00 0.00 69 1019.5
20260901160004 67 280 8.7 13.9 0.00 0.00 0.00 67 1019.5
20260901154503 67 280 11.3 14.8 0.00 0.00 0.00 66 1019.4
20260901153504 69 292 8.7 14.8 0.00 0.00 0.00 64 1019.4
20260901152504 69 238 8.7 13.9 0.00 0.00 0.00 62 1019.5
20260901152003 70 254 6.1 14.8 0.00 0.00 0.00 62 1019.5
20260901151503 70 233 7.8 15.6 0.00 0.00 0.00 61 1019.4
20260901151003 70 277 9.6 17.4 0.00 0.00 0.00 61 1019.4
20260901150504 70 268 9.6 13.9 0.00 0.00 0.00 61 1019.5
20260901144504 70 250 7.8 12.2 0.00 0.00 0.00 64 1019.4
20260901144004 69 244 6.1 11.3 0.00 0.00 0.00 65 1019.4
20260901143504 68 269 8.7 13.9 0.00 0.00 0.00 65 1019.5
20260901143003 68 265 8.7 14.8 0.00 0.00 0.00 66 1019.5
20260901142503 68 285 8.7 13.9 0.00 0.00 0.00 66 1019.5
20260901142003 69 284 9.6 14.8 0.00 0.00 0.00 66 1019.5
20260901141504 68 271 10.4 13.9 0.00 0.00 0.00 69 1019.5
20260901141003 68 283 8.7 12.2 0.00 0.00 0.00 68 1019.5
20260901140004 68 248 7.8 12.2 0.00 0.00 0.00 67 1019.6
20260901135504 68 240 8.7 12.2 0.00 0.00 0.00 66 1019.6
20260901135004 68 247 8.7 15.6 0.00 0.00 0.00 66 1019.7
20260901134504 69 285 8.7 11.3 0.00 0.00 0.00 66 1019.7
20260901134004 69 285 7.8 12.2 0.00 0.00 0.00 65 1019.6
20260901133504 69 272 11.3 14.8 0.00 0.00 0.00 65 1019.7
20260901133003 69 261 7.8 11.3 0.00 0.00 0.00 66 1019.7
20260901132004 69 230 6.1 12.2 0.00 0.00 0.00 65 1019.6
20260901131004 68 237 7.8 14.8 0.00 0.00 0.00 66 1019.6
20260901130504 69 259 8.7 14.8 0.00 0.00 0.00 65 1019.7
20260901125504 69 271 7.8 13.9 0.00 0.00 0.00 66 1019.7
20260901124504 68 283 7.0 12.2 0.00 0.00 0.00 69 1019.8
20260901124004 68 226 7.0 11.3 0.00 0.00 0.00 68 1019.9
20260901123004 69 274 5.2 12.2 0.00 0.00 0.00 68 1019.8
20260901122504 69 233 7.8 13.9 0.00 0.00 0.00 67 1019.8
20260901122004 68 239 5.2 11.3 0.00 0.00 0.00 70 1019.8
20260901121004 66 281 7.8 11.3 0.00 0.00 0.00 74 1019.9
20260901120504 66 241 7.8 11.3 0.00 0.00 0.00 74 1019.9
20260901115504 66 284 8.7 17.4 0.00 0.00 0.00 72 1019.8
20260901115004 67 252 9.6 17.4 0.00 0.00 0.00 69 1019.8
20260901114504 68 232 7.8 15.6 0.00 0.00 0.00 69 1019.7
20260901114004 70 189 7.0 10.4 0.00 0.00 0.00 67 1019.7
20260901113504 70 183 5.2 11.3 0.00 0.00 0.00 71 1019.7
20260901112004 68 221 8.7 12.2 0.00 0.00 0.00 70 1019.9
20260901111504 68 203 7.0 12.2 0.00 0.00 0.00 71 1019.9
20260901111004 67 221 6.1 10.4 0.00 0.00 0.00 72 1019.9
20260901110004 66 245 5.2 8.7 0.00 0.00 0.00 70 1019.8
20260901105504 66 256 6.1 10.4 0.00 0.00 0.00 69 1019.8
20260901105004 66 259 7.8 11.3 0.00 0.00 0.00 68 1019.8
20260901104504 67 265 7.0 13.0 0.00 0.00 0.00 69 1020.0
20260901104004 67 246 7.0 13.0 0.00 0.00 0.00 69 1019.9
20260901103003 67 236 6.1 11.3 0.00 0.00 0.00 70 1019.9
20260901102504 67 285 5.2 8.7 0.00 0.00 0.00 71 1019.9
20260901102004 66 231 7.0 12.2 0.00 0.00 0.00 72 1020.0
20260901101504 65 253 5.2 8.7 0.00 0.00 0.00 75 1020.0
20260901100008 65 255 4.3 7.0 0.00 0.00 0.00 77 1020.2
20260901095505 65 224 3.5 6.1 0.00 0.00 0.00 76 1020.1
20260901094504 65 198 6.1 10.4 0.00 0.00 0.00 75 1020.1
20260901094003 65 224 4.3 10.4 0.00 0.00 0.00 74 1020.1
20260901093504 66 203 6.1 12.2 0.00 0.00 0.00 73 1020.0
20260901093004 66 204 6.1 10.4 0.00 0.00 0.00 72 1019.9
20260901092504 66 222 5.2 10.4 0.00 0.00 0.00 74 1019.9
20260901092004 66 207 4.3 7.8 0.00 0.00 0.00 75 1020.0
20260901091504 66 186 3.5 8.7 0.00 0.00 0.00 74 1019.9
20260901091003 65 201 5.2 7.0 0.00 0.00 0.00 73 1020.0
20260901090504 65 241 4.3 7.0 0.00 0.00 0.00 74 1020.0
20260901090004 65 196 1.7 4.3 0.00 0.00 0.00 76 1019.9
20260901085503 64 211 0.9 2.6 0.00 0.00 0.00 77 1020.0
20260901085004 64 217 0.9 2.6 0.00 0.00 0.00 78 1020.0
20260901084504 64 218 0.0 2.6 0.00 0.00 0.00 78 1020.0
20260901084003 64 217 0.9 2.6 0.00 0.00 0.00 78 1020.0
20260901083504 64 217 2.6 4.3 0.00 0.00 0.00 77 1020.0
20260901083004 64 232 1.7 2.6 0.00 0.00 0.00 77 1020.1
20260901082503 64 218 1.7 2.6 0.00 0.00 0.00 77 1020.1
20260901082003 64 221 0.0 1.7 0.00 0.00 0.00 77 1020.1
20260901081504 64 214 0.0 0.0 0.00 0.00 0.00 77 1020.0
20260901080004 62 207 0.0 0.0 0.00 0.00 0.00 80 1020.0
20260901075504 61 208 0.0 0.0 0.00 0.00 0.00 82 1020.0
20260901075004 60 210 0.0 0.0 0.00 0.00 0.00 83 1020.0
20260901074504 59 211 0.0 0.0 0.00 0.00 0.00 83 1020.0
20260901074003 59 211 0.0 0.0 0.00 0.00 0.00 85 1020.0
20260901073503 58 212 0.0 0.0 0.00 0.00 0.00 85 1020.0
20260901072003 56 213 0.0 0.0 0.00 0.00 0.00 89 1020.0
20260901071503 55 217 0.0 0.0 0.00 0.00 0.00 90 1020.0
20260901071003 55 218 0.0 0.0 0.00 0.00 0.00 90 1020.0
20260901070004 54 219 0.0 0.0 0.00 0.00 0.00 90 1019.9
20260901065503 54 219 0.0 0.0 0.00 0.00 0.00 89 1019.9
20260901065004 54 219 0.0 0.0 0.00 0.00 0.00 89 1019.9
20260901064504 54 219 0.0 0.0 0.00 0.00 0.00 90 1019.9
20260901064004 54 219 0.0 0.0 0.00 0.00 0.00 90 1019.8
20260901063504 54 219 0.0 0.0 0.00 0.00 0.00 90 1019.8
20260901063003 54 219 0.0 0.0 0.00 0.00 0.00 90 1019.8
20260901062503 54 218 0.0 0.0 0.00 0.00 0.00 90 1019.7
20260901062004 53 219 0.0 0.0 0.00 0.00 0.00 90 1019.7
20260901061503 53 219 0.0 0.0 0.00 0.00 0.00 90 1019.7
20260901061003 53 219 0.0 0.0 0.00 0.01 0.00 90 1019.6